DW7142 Weather Reports


time (UTC)temp
F
wind
direction
speed
knots
gust
knots
rain 1hr
in
rain 24hr
in
rain mn
in
humidity
%
barometer
mb
20260504050007 56 256 0.9 3.5 0.00 0.01 0.00 70 1003.3
20260504044509 56 269 0.0 2.6 0.00 0.01 0.01 70 1003.3
20260504043008 56 234 0.9 5.2 0.00 0.01 0.01 69 1003.2
20260504041503 57 247 0.9 4.3 0.00 0.01 0.01 68 1003.2
20260504040003 57 259 1.7 6.1 0.00 0.01 0.01 67 1003.1
20260504034501 58 248 1.7 4.3 0.00 0.01 0.01 66 1003.2
20260504033100 58 238 1.7 4.3 0.00 0.01 0.01 65 1003.3
20260504033001 58 243 0.9 4.3 0.00 0.01 0.01 65 1003.3
20260504031600 59 230 1.7 4.3 0.00 0.01 0.01 64 1003.3
20260504030121 60 248 2.6 6.1 0.00 0.01 0.01 63 1003.3
20260504024601 60 250 2.6 6.1 0.00 0.01 0.01 62 1003.4
20260504023057 61 236 2.6 6.1 0.00 0.01 0.01 61 1003.4
20260504021558 61 273 2.6 5.2 0.00 0.01 0.01 60 1003.3
20260504020107 62 248 2.6 4.3 0.00 0.01 0.01 58 1003.2
20260504014604 62 241 1.7 4.3 0.00 0.01 0.01 57 1003.2
20260504013057 63 256 1.7 3.5 0.00 0.01 0.01 56 1003.0
20260504011555 63 272 1.7 4.3 0.00 0.01 0.01 55 1003.0
20260504010055 64 283 1.7 4.3 0.00 0.01 0.01 55 1002.7
20260504004554 65 237 1.7 5.2 0.00 0.01 0.01 53 1002.6
20260504003054 66 258 1.7 5.2 0.00 0.01 0.01 52 1002.6
20260504001604 67 266 2.6 7.0 0.00 0.01 0.01 50 1002.7
20260504000055 67 263 4.3 7.8 0.00 0.01 0.01 49 1002.7
20260503234547 68 248 4.3 10.4 0.00 0.01 0.01 50 1002.8
20260503233046 68 261 7.8 12.2 0.00 0.01 0.01 47 1002.8
20260503231551 68 256 7.0 12.2 0.00 0.01 0.01 47 1002.9
20260503230042 68 308 6.1 13.0 0.00 0.01 0.01 47 1003.1
20260503224541 68 270 7.8 14.8 0.00 0.01 0.01 48 1003.2
20260503223040 68 273 8.7 13.9 0.00 0.01 0.01 46 1003.4
20260503221544 68 227 7.8 13.0 0.00 0.01 0.01 46 1003.4
20260503220037 68 277 7.8 17.4 0.00 0.01 0.01 46 1003.4
20260503214539 68 256 9.6 17.4 0.00 0.01 0.01 47 1003.4
20260503213042 68 252 8.7 17.4 0.00 0.01 0.01 47 1003.4
20260503211535 67 270 9.6 14.8 0.00 0.01 0.01 47 1003.6
20260503210029 67 283 8.7 15.6 0.00 0.01 0.01 49 1003.9
20260503204528 65 278 12.2 20.0 0.00 0.01 0.01 47 1004.3
20260503203023 66 241 9.6 20.0 0.00 0.01 0.01 47 1004.6
20260503201520 65 259 12.2 20.9 0.00 0.01 0.01 48 1004.9
20260503200019 64 258 11.3 20.0 0.00 0.01 0.01 50 1005.1
20260503194516 63 280 12.2 19.1 0.00 0.01 0.01 47 1005.6
20260503193012 62 231 11.3 24.3 0.00 0.01 0.01 54 1005.8
20260503191510 62 280 10.4 19.1 0.00 0.01 0.01 57 1006.2
20260503190024 60 241 9.6 21.7 0.00 0.01 0.01 59 1006.4
20260503184508 60 236 7.0 14.8 0.00 0.01 0.01 58 1006.4
20260503183008 60 291 6.1 15.6 0.00 0.01 0.01 57 1006.3
20260503181501 59 226 7.0 18.2 0.00 0.01 0.01 54 1006.5
20260503174558 59 139 7.0 19.1 0.00 0.01 0.01 54 1007.2
20260503173112 58 224 7.0 15.6 0.00 0.01 0.01 59 1007.4
20260503171553 57 148 7.8 18.2 0.00 0.01 0.01 61 1008.1
20260503110109 47 255 4.3 13.0 0.00 0.01 0.00 63 1011.3
20260503081544 46 248 2.6 7.0 0.00 0.01 0.00 59 1012.4
20260503071533 46 235 2.6 7.0 0.00 0.01 0.00 58 1012.5